| time (UTC) | temp C | wind direction | speed KPH | gust KPH | rain 1hr cm | rain 24hr cm | rain mn cm | humidity % | barometer mb |
| 20260507064408 | 16 | 248 | 1.6 | 8.0 | 0.00 | 0.00 | 0.00 | 86 | 1014.0 |
| 20260507063907 | 15 | 238 | 3.2 | 8.0 | 0.00 | 0.00 | 0.00 | 86 | 1014.0 |
| 20260507063405 | 15 | 183 | 0.0 | 1.6 | 0.00 | 0.00 | 0.00 | 87 | 1014.0 |
| 20260507062905 | 15 | 189 | 0.0 | 4.8 | 0.00 | 0.00 | 0.00 | 87 | 1014.0 |
| 20260507062405 | 15 | 180 | 3.2 | 8.0 | 0.00 | 0.00 | 0.00 | 87 | 1014.0 |
| 20260507061405 | 16 | 180 | 0.0 | 1.6 | 0.00 | 0.00 | 0.00 | 89 | 1015.0 |
| 20260507060905 | 15 | 180 | 0.0 | 4.8 | 0.00 | 0.00 | 0.00 | 89 | 1015.0 |
| 20260507060406 | 15 | 183 | 0.0 | 4.8 | 0.00 | 0.00 | 0.00 | 89 | 1015.0 |
| 20260507055905 | 15 | 225 | 0.0 | 3.2 | 0.00 | 0.00 | 0.00 | 89 | 1014.0 |
| 20260507055405 | 15 | 261 | 1.6 | 4.8 | 0.00 | 0.00 | 0.00 | 90 | 1014.0 |
| 20260507054905 | 15 | 248 | 0.0 | 4.8 | 0.00 | 0.00 | 0.00 | 90 | 1014.0 |
| 20260507054405 | 15 | 225 | 0.0 | 0.0 | 0.00 | 0.00 | 0.00 | 90 | 1014.0 |
| 20260507053905 | 15 | 225 | 0.0 | 0.0 | 0.00 | 0.00 | 0.00 | 91 | 1014.0 |
| 20260507053405 | 15 | 158 | 0.0 | 3.2 | 0.00 | 0.00 | 0.00 | 91 | 1014.0 |
| 20260507052905 | 14 | 270 | 0.0 | 4.8 | 0.00 | 0.00 | 0.00 | 91 | 1014.0 |
| 20260507051905 | 14 | 248 | 3.2 | 4.8 | 0.00 | 0.00 | 0.00 | 92 | 1014.0 |
| 20260507051405 | 14 | 267 | 1.6 | 4.8 | 0.00 | 0.00 | 0.00 | 92 | 1015.0 |
| 20260507050405 | 14 | 225 | 1.6 | 4.8 | 0.00 | 0.00 | 0.00 | 92 | 1015.0 |
| 20260507045906 | 14 | 223 | 1.6 | 4.8 | 0.00 | 0.00 | 0.00 | 92 | 1015.0 |
| 20260507045405 | 13 | 269 | 4.8 | 8.0 | 0.00 | 0.00 | 0.00 | 92 | 1015.0 |
| 20260507044405 | 14 | 232 | 3.2 | 8.0 | 0.00 | 0.00 | 0.00 | 94 | 1015.0 |
| 20260507043906 | 14 | 226 | 3.2 | 9.7 | 0.00 | 0.00 | 0.00 | 94 | 1015.0 |
| 20260507042905 | 13 | 243 | 4.8 | 9.7 | 0.00 | 0.00 | 0.00 | 94 | 1015.0 |
| 20260507041905 | 13 | 224 | 3.2 | 8.0 | 0.00 | 0.00 | 0.00 | 94 | 1015.0 |
| 20260507040905 | 13 | 240 | 3.2 | 4.8 | 0.00 | 0.00 | 0.00 | 95 | 1015.0 |
| 20260507040405 | 13 | 245 | 1.6 | 4.8 | 0.00 | 0.00 | 0.00 | 95 | 1015.0 |
| 20260507035405 | 14 | 225 | 0.0 | 8.0 | 0.00 | 0.00 | 0.00 | 95 | 1015.0 |
| 20260507034905 | 14 | 248 | 0.0 | 8.0 | 0.00 | 0.00 | 0.00 | 95 | 1015.0 |
| 20260507033905 | 14 | 212 | 1.6 | 4.8 | 0.00 | 0.00 | 0.00 | 95 | 1015.0 |
| 20260507033405 | 14 | 202 | 0.0 | 3.2 | 0.00 | 0.00 | 0.00 | 94 | 1015.0 |
| 20260507032905 | 14 | 201 | 1.6 | 3.2 | 0.00 | 0.00 | 0.00 | 94 | 1015.0 |
| 20260507032405 | 13 | 202 | 0.0 | 3.2 | 0.00 | 0.00 | 0.00 | 94 | 1015.0 |
| 20260507031904 | 13 | 234 | 1.6 | 8.0 | 0.00 | 0.00 | 0.00 | 94 | 1015.0 |
| 20260507031406 | 13 | 225 | 0.0 | 8.0 | 0.00 | 0.00 | 0.00 | 93 | 1015.0 |
| 20260507030904 | 13 | 243 | 3.2 | 8.0 | 0.00 | 0.00 | 0.00 | 92 | 1015.0 |
| 20260507030405 | 14 | 214 | 3.2 | 8.0 | 0.00 | 0.00 | 0.00 | 92 | 1015.0 |
| 20260507025405 | 14 | 247 | 1.6 | 9.7 | 0.00 | 0.00 | 0.00 | 92 | 1014.0 |
| 20260507024905 | 14 | 237 | 3.2 | 9.7 | 0.00 | 0.00 | 0.00 | 92 | 1014.0 |
| 20260507023405 | 14 | 247 | 3.2 | 8.0 | 0.00 | 0.00 | 0.00 | 92 | 1014.0 |
| 20260507022905 | 14 | 240 | 3.2 | 4.8 | 0.00 | 0.00 | 0.00 | 91 | 1015.0 |
| 20260507022405 | 14 | 248 | 3.2 | 4.8 | 0.00 | 0.00 | 0.00 | 91 | 1015.0 |
| 20260507021905 | 14 | 248 | 0.0 | 3.2 | 0.00 | 0.00 | 0.00 | 91 | 1015.0 |
| 20260507021405 | 14 | 260 | 1.6 | 3.2 | 0.00 | 0.00 | 0.00 | 91 | 1015.0 |
| 20260507020906 | 14 | 248 | 1.6 | 3.2 | 0.00 | 0.00 | 0.00 | 91 | 1015.0 |
| 20260507020410 | 14 | 256 | 3.2 | 4.8 | 0.00 | 0.00 | 0.00 | 91 | 1015.0 |
| 20260507015905 | 14 | 236 | 1.6 | 8.0 | 0.00 | 0.00 | 0.00 | 91 | 1015.0 |
| 20260507014907 | 14 | 286 | 3.2 | 4.8 | 0.00 | 0.00 | 0.00 | 91 | 1015.0 |
| 20260507014407 | 14 | 292 | 3.2 | 4.8 | 0.00 | 0.00 | 0.00 | 92 | 1014.0 |
| 20260507013912 | 14 | 257 | 1.6 | 4.8 | 0.00 | 0.00 | 0.00 | 92 | 1014.0 |
| 20260507013406 | 14 | 248 | 3.2 | 8.0 | 0.00 | 0.00 | 0.00 | 94 | 1014.0 |
| 20260507012408 | 14 | 191 | 3.2 | 8.0 | 0.00 | 0.00 | 0.00 | 94 | 1014.0 |
| 20260507011907 | 15 | 191 | 4.8 | 8.0 | 0.00 | 0.00 | 0.00 | 92 | 1014.0 |
| 20260507010406 | 15 | 275 | 3.2 | 8.0 | 0.00 | 0.00 | 0.00 | 88 | 1014.0 |
| 20260507005906 | 15 | 248 | 1.6 | 8.0 | 0.00 | 0.00 | 0.00 | 88 | 1015.0 |
| 20260507005406 | 15 | 282 | 1.6 | 8.0 | 0.00 | 0.00 | 0.00 | 88 | 1015.0 |
| 20260507004910 | 15 | 266 | 3.2 | 8.0 | 0.00 | 0.00 | 0.00 | 87 | 1015.0 |
| 20260507003407 | 15 | 250 | 3.2 | 9.7 | 0.00 | 0.00 | 0.00 | 87 | 1014.0 |
| 20260507002906 | 15 | 251 | 4.8 | 9.7 | 0.00 | 0.00 | 0.00 | 87 | 1014.0 |
| 20260507002407 | 15 | 244 | 3.2 | 9.7 | 0.00 | 0.00 | 0.00 | 87 | 1014.0 |
| 20260507001906 | 15 | 245 | 3.2 | 9.7 | 0.00 | 0.00 | 0.00 | 86 | 1014.0 |
| 20260507000909 | 15 | 250 | 6.4 | 11.3 | 0.00 | 0.00 | 0.00 | 84 | 1014.0 |
| 20260507000406 | 15 | 249 | 4.8 | 9.7 | 0.00 | 0.00 | 0.00 | 84 | 1014.0 |
| 20260506235907 | 15 | 269 | 4.8 | 9.7 | 0.00 | 0.00 | 0.00 | 84 | 1014.0 |
| 20260506235406 | 15 | 234 | 3.2 | 9.7 | 0.00 | 0.00 | 0.00 | 84 | 1014.0 |
| 20260506234918 | 15 | 251 | 4.8 | 9.7 | 0.00 | 0.00 | 0.00 | 84 | 1014.0 |
| 20260506233406 | 15 | 288 | 3.2 | 8.0 | 0.00 | 0.00 | 0.00 | 83 | 1014.0 |
| 20260506232906 | 15 | 248 | 4.8 | 9.7 | 0.00 | 0.00 | 0.00 | 83 | 1015.0 |
| 20260506231906 | 16 | 290 | 8.0 | 9.7 | 0.00 | 0.00 | 0.00 | 83 | 1015.0 |
| 20260506231408 | 16 | 271 | 4.8 | 11.3 | 0.00 | 0.00 | 0.00 | 82 | 1015.0 |
| 20260506230906 | 16 | 263 | 4.8 | 11.3 | 0.00 | 0.00 | 0.00 | 82 | 1015.0 |
| 20260506230406 | 16 | 290 | 6.4 | 11.3 | 0.00 | 0.00 | 0.00 | 82 | 1015.0 |
| 20260506224910 | 16 | 228 | 4.8 | 24.1 | 0.00 | 0.00 | 0.00 | 82 | 1015.0 |
| 20260506224406 | 16 | 281 | 4.8 | 24.1 | 0.00 | 0.00 | 0.00 | 83 | 1015.0 |
| 20260506223906 | 16 | 238 | 3.2 | 8.0 | 0.00 | 0.00 | 0.00 | 82 | 1015.0 |
| 20260506222906 | 16 | 270 | 3.2 | 8.0 | 0.00 | 0.00 | 0.00 | 82 | 1015.0 |
| 20260506222408 | 16 | 270 | 3.2 | 11.3 | 0.00 | 0.00 | 0.00 | 82 | 1015.0 |
| 20260506220906 | 16 | 254 | 3.2 | 8.0 | 0.00 | 0.00 | 0.00 | 83 | 1015.0 |
| 20260506220407 | 16 | 222 | 3.2 | 9.7 | 0.00 | 0.00 | 0.00 | 82 | 1015.0 |
| 20260506215906 | 16 | 281 | 6.4 | 9.7 | 0.00 | 0.00 | 0.00 | 83 | 1015.0 |
| 20260506214921 | 16 | 202 | 4.8 | 9.7 | 0.00 | 0.00 | 0.00 | 83 | 1015.0 |
| 20260506214422 | 16 | 252 | 4.8 | 11.3 | 0.00 | 0.00 | 0.00 | 82 | 1015.0 |
| 20260506213406 | 16 | 284 | 4.8 | 9.7 | 0.00 | 0.00 | 0.00 | 82 | 1015.0 |
| 20260506212406 | 16 | 223 | 3.2 | 14.5 | 0.00 | 0.00 | 0.00 | 82 | 1015.0 |
| 20260506210906 | 16 | 255 | 4.8 | 12.9 | 0.00 | 0.00 | 0.00 | 81 | 1015.0 |
| 20260506210406 | 16 | 226 | 3.2 | 11.3 | 0.00 | 0.00 | 0.00 | 81 | 1015.0 |
| 20260506205906 | 16 | 257 | 4.8 | 12.9 | 0.00 | 0.00 | 0.00 | 81 | 1015.0 |
| 20260506205406 | 16 | 258 | 4.8 | 12.9 | 0.00 | 0.00 | 0.00 | 81 | 1015.0 |
| 20260506204906 | 16 | 272 | 8.0 | 12.9 | 0.00 | 0.00 | 0.00 | 81 | 1015.0 |
| 20260506204406 | 16 | 254 | 4.8 | 9.7 | 0.00 | 0.00 | 0.00 | 82 | 1015.0 |
| 20260506203406 | 16 | 250 | 4.8 | 8.0 | 0.00 | 0.00 | 0.00 | 83 | 1015.0 |
| 20260506202907 | 16 | 229 | 3.2 | 8.0 | 0.00 | 0.00 | 0.00 | 84 | 1014.0 |
| 20260506201907 | 16 | 244 | 0.0 | 8.0 | 0.00 | 0.00 | 0.00 | 86 | 1014.0 |
| 20260506201406 | 16 | 185 | 4.8 | 8.0 | 0.00 | 0.00 | 0.00 | 87 | 1014.0 |
| 20260506200412 | 16 | 222 | 1.6 | 8.0 | 0.00 | 0.00 | 0.00 | 86 | 1014.0 |
| 20260506195906 | 16 | 239 | 3.2 | 9.7 | 0.00 | 0.00 | 0.00 | 86 | 1014.0 |
| 20260506195406 | 16 | 240 | 4.8 | 9.7 | 0.00 | 0.00 | 0.00 | 87 | 1014.0 |
| 20260506194906 | 16 | 235 | 4.8 | 12.9 | 0.00 | 0.00 | 0.00 | 88 | 1014.0 |
| 20260506193907 | 16 | 203 | 6.4 | 12.9 | 0.00 | 0.00 | 0.00 | 88 | 1014.0 |
| 20260506192907 | 16 | 180 | 4.8 | 12.9 | 0.00 | 0.00 | 0.00 | 84 | 1014.0 |
| 20260506192406 | 16 | 217 | 4.8 | 12.9 | 0.00 | 0.00 | 0.00 | 82 | 1014.0 |
| 20260506191907 | 16 | 239 | 9.7 | 16.1 | 0.00 | 0.00 | 0.00 | 81 | 1014.0 |
| 20260506191406 | 16 | 255 | 6.4 | 16.1 | 0.00 | 0.00 | 0.00 | 81 | 1014.0 |
| 20260506190906 | 16 | 263 | 8.0 | 14.5 | 0.00 | 0.00 | 0.00 | 81 | 1014.0 |
| 20260506190406 | 16 | 264 | 6.4 | 12.9 | 0.00 | 0.00 | 0.00 | 80 | 1014.0 |
| 20260506185906 | 16 | 255 | 4.8 | 14.5 | 0.00 | 0.00 | 0.00 | 80 | 1013.0 |
| 20260506185407 | 16 | 255 | 6.4 | 19.3 | 0.00 | 0.00 | 0.00 | 79 | 1013.0 |
| 20260506184906 | 17 | 275 | 9.7 | 22.5 | 0.00 | 0.00 | 0.00 | 79 | 1013.0 |
| 20260506184407 | 17 | 262 | 12.9 | 22.5 | 0.00 | 0.00 | 0.00 | 75 | 1013.0 |
| 20260506183906 | 17 | 252 | 8.0 | 12.9 | 0.00 | 0.00 | 0.00 | 73 | 1013.0 |
| 20260506183406 | 17 | 281 | 8.0 | 11.3 | 0.00 | 0.00 | 0.00 | 73 | 1013.0 |
| 20260506182912 | 17 | 274 | 4.8 | 11.3 | 0.00 | 0.00 | 0.00 | 73 | 1013.0 |
| 20260506182409 | 17 | 259 | 4.8 | 12.9 | 0.00 | 0.00 | 0.00 | 72 | 1013.0 |
| 20260506181906 | 17 | 275 | 6.4 | 14.5 | 0.00 | 0.00 | 0.00 | 72 | 1013.0 |
| 20260506181406 | 17 | 254 | 9.7 | 19.3 | 0.00 | 0.00 | 0.00 | 72 | 1012.0 |
| 20260506180907 | 17 | 281 | 6.4 | 19.3 | 0.00 | 0.00 | 0.00 | 72 | 1012.0 |
| 20260506180406 | 17 | 278 | 11.3 | 16.1 | 0.00 | 0.00 | 0.00 | 71 | 1012.0 |
| 20260506175906 | 17 | 279 | 8.0 | 20.9 | 0.00 | 0.00 | 0.00 | 71 | 1013.0 |
| 20260506174906 | 18 | 284 | 8.0 | 14.5 | 0.00 | 0.00 | 0.00 | 70 | 1013.0 |
| 20260506173906 | 18 | 251 | 4.8 | 14.5 | 0.00 | 0.00 | 0.00 | 70 | 1013.0 |
| 20260506173406 | 18 | 259 | 4.8 | 16.1 | 0.00 | 0.00 | 0.00 | 70 | 1013.0 |
| 20260506172406 | 18 | 257 | 8.0 | 16.1 | 0.00 | 0.00 | 0.00 | 70 | 1013.0 |
| 20260506171906 | 18 | 268 | 8.0 | 22.5 | 0.00 | 0.00 | 0.00 | 69 | 1013.0 |
| 20260506170406 | 18 | 280 | 9.7 | 19.3 | 0.00 | 0.00 | 0.00 | 70 | 1013.0 |
| 20260506165906 | 18 | 248 | 8.0 | 25.7 | 0.00 | 0.00 | 0.00 | 70 | 1013.0 |
| 20260506164406 | 18 | 261 | 16.1 | 24.1 | 0.00 | 0.00 | 0.00 | 70 | 1014.0 |
| 20260506162905 | 18 | 281 | 19.3 | 38.6 | 0.00 | 0.00 | 0.00 | 68 | 1013.0 |
| 20260506162408 | 18 | 280 | 19.3 | 38.6 | 0.00 | 0.00 | 0.00 | 68 | 1013.0 |
| 20260506161905 | 18 | 269 | 16.1 | 33.8 | 0.00 | 0.00 | 0.00 | 70 | 1013.0 |
| 20260506161406 | 18 | 289 | 19.3 | 33.8 | 0.00 | 0.00 | 0.00 | 70 | 1013.0 |
| 20260506160906 | 18 | 273 | 11.3 | 32.2 | 0.00 | 0.00 | 0.00 | 71 | 1013.0 |
| 20260506160407 | 18 | 309 | 16.1 | 32.2 | 0.00 | 0.00 | 0.00 | 71 | 1013.0 |
| 20260506155406 | 19 | 288 | 19.3 | 32.2 | 0.00 | 0.00 | 0.00 | 66 | 1013.0 |
| 20260506154907 | 19 | 295 | 16.1 | 27.4 | 0.00 | 0.00 | 0.00 | 65 | 1013.0 |
| 20260506154405 | 19 | 295 | 16.1 | 25.7 | 0.00 | 0.00 | 0.00 | 65 | 1013.0 |
| 20260506153906 | 20 | 292 | 14.5 | 29.0 | 0.00 | 0.00 | 0.00 | 63 | 1013.0 |
| 20260506153406 | 20 | 278 | 20.9 | 29.0 | 0.00 | 0.00 | 0.00 | 62 | 1013.0 |
| 20260506152906 | 20 | 280 | 14.5 | 29.0 | 0.00 | 0.00 | 0.00 | 61 | 1013.0 |
| 20260506152413 | 20 | 275 | 16.1 | 38.6 | 0.00 | 0.00 | 0.00 | 60 | 1013.0 |
| 20260506151909 | 20 | 276 | 22.5 | 38.6 | 0.00 | 0.00 | 0.00 | 59 | 1013.0 |
| 20260506151411 | 20 | 277 | 16.1 | 35.4 | 0.00 | 0.00 | 0.00 | 59 | 1013.0 |
| 20260506150907 | 20 | 289 | 16.1 | 33.8 | 0.00 | 0.00 | 0.00 | 59 | 1013.0 |
| 20260506145905 | 20 | 277 | 14.5 | 32.2 | 0.00 | 0.00 | 0.00 | 58 | 1013.0 |
| 20260506144921 | 20 | 276 | 17.7 | 29.0 | 0.00 | 0.00 | 0.00 | 57 | 1013.0 |
| 20260506144408 | 20 | 284 | 16.1 | 38.6 | 0.00 | 0.00 | 0.00 | 55 | 1013.0 |
| 20260506143906 | 20 | 278 | 22.5 | 40.2 | 0.00 | 0.00 | 0.00 | 55 | 1013.0 |
| 20260506143406 | 20 | 271 | 27.4 | 40.2 | 0.00 | 0.00 | 0.00 | 54 | 1013.0 |
| 20260506142906 | 21 | 280 | 16.1 | 40.2 | 0.00 | 0.00 | 0.00 | 54 | 1012.0 |
| 20260506142406 | 21 | 277 | 22.5 | 40.2 | 0.00 | 0.00 | 0.00 | 53 | 1012.0 |
| 20260506141906 | 21 | 281 | 16.1 | 38.6 | 0.00 | 0.00 | 0.00 | 52 | 1012.0 |
| 20260506141406 | 21 | 292 | 22.5 | 38.6 | 0.00 | 0.00 | 0.00 | 52 | 1012.0 |
| 20260506134906 | 20 | 280 | 20.9 | 38.6 | 0.00 | 0.00 | 0.00 | 52 | 1013.0 |
| 20260506133410 | 21 | 280 | 19.3 | 27.4 | 0.00 | 0.00 | 0.00 | 52 | 1013.0 |
| 20260506132906 | 20 | 301 | 14.5 | 32.2 | 0.00 | 0.00 | 0.00 | 53 | 1013.0 |
| 20260506132413 | 20 | 286 | 19.3 | 32.2 | 0.00 | 0.00 | 0.00 | 52 | 1013.0 |
| 20260506131906 | 20 | 293 | 17.7 | 35.4 | 0.00 | 0.00 | 0.00 | 54 | 1013.0 |
| 20260506131406 | 20 | 287 | 25.7 | 45.1 | 0.00 | 0.00 | 0.00 | 54 | 1013.0 |
| 20260506130906 | 20 | 298 | 24.1 | 45.1 | 0.00 | 0.00 | 0.00 | 55 | 1013.0 |
| 20260506124909 | 20 | 307 | 22.5 | 40.2 | 0.00 | 0.00 | 0.00 | 55 | 1013.0 |
| 20260506124405 | 20 | 281 | 14.5 | 27.4 | 0.00 | 0.00 | 0.00 | 55 | 1013.0 |
| 20260506123906 | 20 | 281 | 16.1 | 27.4 | 0.00 | 0.00 | 0.00 | 55 | 1013.0 |
| 20260506122921 | 20 | 287 | 16.1 | 27.4 | 0.00 | 0.00 | 0.00 | 55 | 1013.0 |
| 20260506122407 | 20 | 266 | 20.9 | 27.4 | 0.00 | 0.00 | 0.00 | 56 | 1013.0 |
| 20260506121906 | 20 | 277 | 12.9 | 25.7 | 0.00 | 0.00 | 0.00 | 57 | 1013.0 |
| 20260506121405 | 20 | 285 | 14.5 | 25.7 | 0.00 | 0.00 | 0.00 | 58 | 1013.0 |
| 20260506120905 | 20 | 269 | 11.3 | 24.1 | 0.00 | 0.00 | 0.00 | 58 | 1013.0 |
| 20260506120405 | 20 | 296 | 12.9 | 24.1 | 0.00 | 0.00 | 0.00 | 58 | 1013.0 |
| 20260506115905 | 20 | 296 | 9.7 | 27.4 | 0.00 | 0.00 | 0.00 | 59 | 1012.0 |
| 20260506115405 | 20 | 290 | 9.7 | 32.2 | 0.00 | 0.00 | 0.00 | 59 | 1012.0 |
| 20260506114905 | 20 | 282 | 19.3 | 32.2 | 0.00 | 0.00 | 0.00 | 58 | 1012.0 |
| 20260506114405 | 20 | 285 | 14.5 | 27.4 | 0.00 | 0.00 | 0.00 | 58 | 1012.0 |
| 20260506113906 | 20 | 278 | 11.3 | 25.7 | 0.00 | 0.00 | 0.00 | 58 | 1012.0 |
| 20260506113405 | 20 | 293 | 17.7 | 29.0 | 0.00 | 0.00 | 0.00 | 58 | 1012.0 |
| 20260506112905 | 20 | 296 | 16.1 | 29.0 | 0.00 | 0.00 | 0.00 | 58 | 1013.0 |
| 20260506112405 | 20 | 292 | 16.1 | 37.0 | 0.00 | 0.00 | 0.00 | 57 | 1013.0 |
| 20260506111406 | 20 | 297 | 16.1 | 27.4 | 0.00 | 0.00 | 0.00 | 56 | 1013.0 |
| 20260506110905 | 20 | 295 | 17.7 | 27.4 | 0.00 | 0.00 | 0.00 | 55 | 1013.0 |
| 20260506110409 | 20 | 285 | 14.5 | 24.1 | 0.00 | 0.00 | 0.00 | 55 | 1013.0 |
| 20260506105908 | 20 | 283 | 16.1 | 24.1 | 0.00 | 0.00 | 0.00 | 54 | 1013.0 |
| 20260506105405 | 20 | 288 | 14.5 | 32.2 | 0.00 | 0.00 | 0.00 | 55 | 1013.0 |
| 20260506104905 | 20 | 271 | 19.3 | 32.2 | 0.00 | 0.00 | 0.00 | 55 | 1013.0 |
| 20260506103405 | 20 | 304 | 20.9 | 29.0 | 0.00 | 0.00 | 0.00 | 55 | 1013.0 |
| 20260506102907 | 20 | 299 | 14.5 | 37.0 | 0.00 | 0.00 | 0.00 | 56 | 1013.0 |
| 20260506102406 | 19 | 279 | 16.1 | 37.0 | 0.00 | 0.00 | 0.00 | 56 | 1013.0 |
| 20260506101906 | 19 | 283 | 16.1 | 37.0 | 0.00 | 0.00 | 0.00 | 57 | 1013.0 |
| 20260506101405 | 19 | 283 | 14.5 | 24.1 | 0.00 | 0.00 | 0.00 | 57 | 1013.0 |
| 20260506100905 | 19 | 284 | 9.7 | 37.0 | 0.00 | 0.00 | 0.00 | 57 | 1013.0 |
| 20260506100405 | 18 | 290 | 16.1 | 37.0 | 0.00 | 0.00 | 0.00 | 56 | 1013.0 |
| 20260506095905 | 19 | 277 | 19.3 | 27.4 | 0.00 | 0.00 | 0.00 | 59 | 1013.0 |
| 20260506095408 | 18 | 254 | 6.4 | 12.9 | 0.00 | 0.00 | 0.00 | 64 | 1013.0 |
| 20260506094905 | 18 | 272 | 3.2 | 16.1 | 0.00 | 0.00 | 0.00 | 66 | 1013.0 |
| 20260506093905 | 18 | 257 | 6.4 | 19.3 | 0.00 | 0.00 | 0.00 | 65 | 1013.0 |
| 20260506093405 | 18 | 272 | 11.3 | 19.3 | 0.00 | 0.00 | 0.00 | 66 | 1013.0 |
| 20260506092905 | 18 | 272 | 4.8 | 16.1 | 0.00 | 0.00 | 0.00 | 68 | 1013.0 |
| 20260506092405 | 18 | 237 | 3.2 | 11.3 | 0.00 | 0.00 | 0.00 | 69 | 1013.0 |
| 20260506091905 | 18 | 279 | 3.2 | 11.3 | 0.00 | 0.00 | 0.00 | 69 | 1013.0 |
| 20260506091405 | 18 | 286 | 3.2 | 11.3 | 0.00 | 0.00 | 0.00 | 69 | 1013.0 |
| 20260506090905 | 18 | 261 | 3.2 | 8.0 | 0.00 | 0.00 | 0.00 | 69 | 1013.0 |
| 20260506090405 | 17 | 254 | 1.6 | 8.0 | 0.00 | 0.00 | 0.00 | 68 | 1013.0 |
| 20260506085905 | 17 | 244 | 3.2 | 8.0 | 0.00 | 0.00 | 0.00 | 69 | 1013.0 |
| 20260506085405 | 17 | 246 | 3.2 | 9.7 | 0.00 | 0.00 | 0.00 | 69 | 1013.0 |
| 20260506084405 | 17 | 255 | 4.8 | 11.3 | 0.00 | 0.00 | 0.00 | 69 | 1013.0 |
| 20260506083905 | 17 | 260 | 4.8 | 9.7 | 0.00 | 0.00 | 0.00 | 69 | 1013.0 |
| 20260506082405 | 18 | 257 | 6.4 | 14.5 | 0.00 | 0.00 | 0.00 | 69 | 1013.0 |
| 20260506081907 | 18 | 248 | 8.0 | 12.9 | 0.00 | 0.00 | 0.00 | 68 | 1013.0 |
| 20260506081405 | 18 | 251 | 4.8 | 12.9 | 0.00 | 0.00 | 0.00 | 69 | 1013.0 |
| 20260506080905 | 17 | 254 | 6.4 | 12.9 | 0.00 | 0.00 | 0.00 | 69 | 1013.0 |
| 20260506080406 | 17 | 265 | 3.2 | 11.3 | 0.00 | 0.00 | 0.00 | 67 | 1013.0 |
| 20260506073405 | 17 | 238 | 3.2 | 9.7 | 0.00 | 0.00 | 0.00 | 71 | 1013.0 |
| 20260506072905 | 17 | 241 | 3.2 | 12.9 | 0.00 | 0.00 | 0.00 | 72 | 1013.0 |
| 20260506072405 | 16 | 265 | 8.0 | 12.9 | 0.00 | 0.00 | 0.00 | 72 | 1013.0 |
| 20260506071905 | 16 | 265 | 4.8 | 11.3 | 0.00 | 0.00 | 0.00 | 72 | 1013.0 |
| 20260506071405 | 16 | 237 | 6.4 | 11.3 | 0.00 | 0.00 | 0.00 | 72 | 1013.0 |
| 20260506070907 | 16 | 222 | 4.8 | 11.3 | 0.00 | 0.00 | 0.00 | 74 | 1013.0 |
| 20260506070405 | 16 | 257 | 4.8 | 12.9 | 0.00 | 0.00 | 0.00 | 75 | 1013.0 |